Lakeville, MN

3:00 AM CST on January 21, 2018 (GMT -0600)
Airlake

Weather History for KLVN - January, 2014

Change the Weather History Date:

Monday, January 20, 2014

  Actual Average Record
Temperature  
Mean Temperature 12 °F -  
Max Temperature 28 °F 22 °F 44 °F (1964)
Min Temperature -4 °F 2 °F -29 °F (1984)
Degree Days  
Heating Degree Days 53    
Moisture  
Dew Point 7 °F    
Average Humidity 74    
Maximum Humidity 93    
Minimum Humidity 50    
Precipitation  
Precipitation 0.00 in - - ()
Sea Level Pressure  
Sea Level Pressure 30.02 in    
Wind  
Wind Speed 12 mph (NNW)    
Max Wind Speed 23 mph    
Max Gust Speed 29 mph    
Visibility 8 miles    
Events Snow    
Averages and records for this station are not official NWS values.
T = Trace of Precipitation, MM = Missing Value Source: NWS Daily Summary

Daily Weather History Graph

Daily Weather History Graph

Search for Another Location

Airport or City:

Trip Planner

Search our weather history database for the weather conditions in past years. The results will help you decide how hot, cold, wet, or windy it might be!

Date:

Astronomy

Jan. 20, 2014 Rise Set
Actual Time 7:43 AM CST 5:05 PM CST
Civil Twilight 7:11 AM CST 5:37 PM CST
Nautical Twilight 6:35 AM CST 6:13 PM CST
Astronomical Twilight 6:00 AM CST 6:47 PM CST
Moon 9:53 PM CST (1/20) 9:31 AM CST (1/20)
Length of Visible Light 10h 26m
Length of Day
9h 22m
Waning Gibbous, 82% of the Moon is Illuminated
Jan 20
Waning Gibbous
Jan 23
Last Quarter
Jan 30
New
Feb 6
First Quarter
Feb 14
Full

Hourly Weather History & Observations

Time (CST) Temp. Windchill Dew Point Humidity Pressure Visibility Wind Dir Wind Speed Gust Speed Precip Events Conditions
12:03 AM 28.4 °F 20.4 °F 23.0 °F 80% 29.71 in 10.0 mi West 8.1 mph - N/A   Overcast
12:24 AM 28.4 °F 21.2 °F 24.8 °F 86% 29.71 in 10.0 mi WSW 6.9 mph - N/A   Overcast
12:43 AM 28.4 °F 19.7 °F 24.8 °F 86% 29.71 in 10.0 mi West 9.2 mph - N/A   Overcast
1:03 AM 28.4 °F 21.2 °F 24.8 °F 86% 29.71 in 10.0 mi WSW 6.9 mph - N/A   Overcast
1:24 AM 28.4 °F 21.2 °F 24.8 °F 86% 29.71 in 10.0 mi WSW 6.9 mph - N/A   Overcast
1:43 AM 28.4 °F 19.1 °F 24.8 °F 86% 29.72 in 10.0 mi West 10.4 mph - N/A   Overcast
2:03 AM 28.4 °F 20.4 °F 24.8 °F 86% 29.72 in 10.0 mi West 8.1 mph - N/A   Overcast
2:24 AM 26.6 °F 16.8 °F 23.0 °F 86% 29.73 in 10.0 mi West 10.4 mph - N/A   Scattered Clouds
2:43 AM 26.6 °F 16.8 °F 23.0 °F 86% 29.74 in 10.0 mi West 10.4 mph - N/A   Clear
3:04 AM 24.8 °F 12.9 °F 21.2 °F 86% 29.74 in 10.0 mi West 13.8 mph - N/A   Scattered Clouds
3:23 AM 26.6 °F 13.8 °F 23.0 °F 86% 29.74 in 10.0 mi West 17.3 mph - N/A   Mostly Cloudy
3:43 AM 26.6 °F 13.4 °F 23.0 °F 86% 29.73 in 10.0 mi West 18.4 mph 26.5 mph N/A   Mostly Cloudy
4:04 AM 26.6 °F 12.0 °F 21.2 °F 80% 29.73 in 10.0 mi WNW 23.0 mph 27.6 mph N/A   Scattered Clouds
4:23 AM 26.6 °F 12.7 °F 23.0 °F 86% 29.75 in 10.0 mi WNW 20.7 mph 28.8 mph N/A   Overcast
4:43 AM 26.6 °F 13.1 °F 23.0 °F 86% 29.75 in 10.0 mi NW 19.6 mph - N/A   Overcast
5:04 AM 26.6 °F 15.2 °F 23.0 °F 86% 29.76 in 10.0 mi NW 13.8 mph - N/A   Overcast
5:23 AM 26.6 °F 15.2 °F 21.2 °F 80% 29.77 in 10.0 mi NW 13.8 mph 21.9 mph N/A   Overcast
5:44 AM 26.6 °F 15.2 °F 21.2 °F 80% 29.77 in 10.0 mi NW 13.8 mph 23.0 mph N/A   Mostly Cloudy
6:03 AM 24.8 °F 14.6 °F 19.4 °F 80% 29.79 in 10.0 mi WNW 10.4 mph - N/A   Mostly Cloudy
6:23 AM 26.6 °F 16.8 °F 19.4 °F 74% 29.80 in 10.0 mi WNW 10.4 mph 17.3 mph N/A   Overcast
6:44 AM 26.6 °F 16.8 °F 19.4 °F 74% 29.82 in 10.0 mi NW 10.4 mph - N/A   Overcast
7:03 AM 26.6 °F 15.7 °F 21.2 °F 80% 29.82 in 10.0 mi NW 12.7 mph 17.3 mph N/A   Overcast
7:24 AM 24.8 °F 16.1 °F 21.2 °F 86% 29.84 in 10.0 mi North 8.1 mph - N/A   Overcast
7:43 AM 24.8 °F 14.0 °F 19.4 °F 80% 29.84 in 10.0 mi North 11.5 mph 16.1 mph N/A   Overcast
8:03 AM 23.0 °F 13.9 °F 19.4 °F 86% 29.85 in 10.0 mi NNE 8.1 mph - N/A   Overcast
8:24 AM 21.2 °F 11.7 °F 19.4 °F 93% 29.87 in 10.0 mi North 8.1 mph - N/A   Overcast
8:43 AM 21.2 °F 10.9 °F 19.4 °F 93% 29.89 in 10.0 mi NNE 9.2 mph - N/A   Overcast
9:04 AM 19.4 °F 6.6 °F 17.6 °F 93% 29.90 in 2.0 mi NNE 12.7 mph - N/A Snow Light Snow
9:23 AM 19.4 °F 6.6 °F 15.8 °F 86% 29.92 in 1.2 mi NNE 12.7 mph - N/A Snow Light Snow
9:43 AM 17.6 °F 3.7 °F 15.8 °F 93% 29.93 in 1.8 mi NNE 13.8 mph - N/A Snow Light Snow
10:04 AM 17.6 °F 5.7 °F 12.2 °F 79% 29.95 in 5.0 mi NNE 10.4 mph - N/A Snow Light Snow
10:23 AM 17.6 °F 5.7 °F 12.2 °F 79% 29.97 in 7.0 mi NNE 10.4 mph - N/A   Overcast
10:43 AM 17.6 °F 4.3 °F 12.2 °F 79% 29.97 in 5.0 mi NNE 12.7 mph - N/A Snow Light Snow
11:04 AM 15.8 °F 2.1 °F 10.4 °F 79% 29.98 in 3.0 mi North 12.7 mph - N/A Snow Light Snow
11:23 AM 15.8 °F 3.4 °F 10.4 °F 79% 29.98 in 3.0 mi North 10.4 mph - N/A Snow Light Snow
11:43 AM 15.8 °F 2.1 °F 10.4 °F 79% 29.98 in 7.0 mi North 12.7 mph - N/A Snow Light Snow
12:04 PM 14.0 °F -0.2 °F 8.6 °F 79% 29.99 in 7.0 mi North 12.7 mph 18.4 mph N/A Snow Light Snow
12:23 PM 14.0 °F 0.5 °F 8.6 °F 79% 29.99 in 7.0 mi North 11.5 mph - N/A Snow Light Snow
12:43 PM 14.0 °F 0.5 °F 8.6 °F 79% 30.00 in 10.0 mi NNE 11.5 mph - N/A   Scattered Clouds
1:04 PM 12.2 °F -3.7 °F 6.8 °F 79% 30.01 in 5.0 mi North 15.0 mph - N/A Snow Light Snow
1:23 PM 12.2 °F -3.7 °F 6.8 °F 79% 30.02 in 4.0 mi NNE 15.0 mph - N/A Snow Light Snow
1:43 PM 10.4 °F -6.0 °F 5.0 °F 79% 30.03 in 4.0 mi North 15.0 mph 18.4 mph N/A Snow Light Snow
2:04 PM 10.4 °F -4.8 °F 5.0 °F 79% 30.05 in 3.0 mi North 12.7 mph 16.1 mph N/A Snow Light Snow
2:23 PM 10.4 °F -5.4 °F 3.2 °F 73% 30.06 in 4.0 mi North 13.8 mph 19.6 mph N/A Snow Light Snow
2:44 PM 10.4 °F -5.4 °F 3.2 °F 73% 30.07 in 3.0 mi North 13.8 mph 19.6 mph N/A Snow Light Snow
3:03 PM 8.6 °F -9.5 °F 3.2 °F 79% 30.10 in 4.0 mi North 17.3 mph 23.0 mph N/A   Haze
3:23 PM 8.6 °F -8.9 °F 3.2 °F 79% 30.11 in 4.0 mi NNE 16.1 mph 23.0 mph N/A   Haze
3:44 PM 8.6 °F -8.3 °F 1.4 °F 73% 30.13 in 4.0 mi North 15.0 mph 20.7 mph N/A Snow Light Snow
4:03 PM 8.6 °F -8.9 °F 1.4 °F 73% 30.15 in 7.0 mi North 16.1 mph 20.7 mph N/A   Scattered Clouds
4:23 PM 6.8 °F -10.7 °F -0.4 °F 72% 30.17 in 7.0 mi North 15.0 mph 18.4 mph N/A   Scattered Clouds
4:44 PM 6.8 °F -9.3 °F -0.4 °F 72% 30.19 in 7.0 mi North 12.7 mph 23.0 mph N/A   Scattered Clouds
5:03 PM 6.8 °F -10.7 °F -2.2 °F 67% 30.20 in 10.0 mi North 15.0 mph 18.4 mph N/A   Scattered Clouds
5:23 PM 5.0 °F -12.3 °F -2.2 °F 72% 30.22 in 10.0 mi North 13.8 mph - N/A   Scattered Clouds
5:44 PM 5.0 °F -12.3 °F -4.0 °F 66% 30.23 in 10.0 mi North 13.8 mph 19.6 mph N/A   Clear
6:03 PM 3.2 °F -13.1 °F -5.8 °F 66% 30.25 in 10.0 mi North 11.5 mph 23.0 mph N/A   Clear
6:23 PM 3.2 °F -17.1 °F -7.6 °F 61% 30.27 in 7.0 mi North 18.4 mph 24.2 mph N/A   Clear
6:44 PM 3.2 °F -17.1 °F -9.4 °F 56% 30.28 in 7.0 mi North 18.4 mph 25.3 mph N/A   Clear
7:03 PM 3.2 °F -17.1 °F -9.4 °F 56% 30.30 in 10.0 mi North 18.4 mph 24.2 mph N/A   Clear
7:23 PM 1.4 °F -17.6 °F -11.2 °F 56% 30.31 in 10.0 mi North 15.0 mph 23.0 mph N/A   Clear
7:44 PM 1.4 °F -15.3 °F -11.2 °F 56% 30.32 in 10.0 mi North 11.5 mph - N/A   Clear
8:03 PM 1.4 °F -14.5 °F -11.2 °F 56% 30.33 in 10.0 mi North 10.4 mph 20.7 mph N/A   Clear
8:23 PM 1.4 °F -18.8 °F -11.2 °F 56% 30.34 in 10.0 mi North 17.3 mph 21.9 mph N/A   Clear
8:44 PM -0.4 °F -19.2 °F -13.0 °F 55% 30.36 in 10.0 mi North 13.8 mph 20.7 mph N/A   Clear
9:03 PM -0.4 °F -19.9 °F -14.8 °F 51% 30.36 in 10.0 mi North 15.0 mph 20.7 mph N/A   Clear
9:23 PM -0.4 °F -17.6 °F -14.8 °F 51% 30.37 in 10.0 mi NNW 11.5 mph - N/A   Clear
9:43 PM -0.4 °F -17.6 °F -14.8 °F 51% 30.38 in 10.0 mi NNW 11.5 mph 18.4 mph N/A   Clear
10:03 PM -2.2 °F -21.5 °F -14.8 °F 55% 30.39 in 10.0 mi North 13.8 mph 21.9 mph N/A   Clear
10:24 PM -2.2 °F -16.8 °F -16.6 °F 50% 30.39 in 10.0 mi North 8.1 mph - N/A   Clear
10:43 PM -2.2 °F -21.5 °F -14.8 °F 55% 30.40 in 10.0 mi NNW 13.8 mph 19.6 mph N/A   Clear
11:03 PM -2.2 °F -16.8 °F -16.6 °F 50% 30.40 in 10.0 mi North 8.1 mph - N/A   Clear
11:24 PM -4.0 °F -17.8 °F -16.6 °F 55% 30.41 in 10.0 mi NNW 6.9 mph - N/A   Clear
11:43 PM -4.0 °F -17.8 °F -16.6 °F 55% 30.42 in 10.0 mi NNW 6.9 mph - N/A   Clear